This is the latest recevied weather packets stored in our database for station/object KQ4PPF. If no packets are shown the sender has not sent any weather packets the latest 10 day(s).
| Time | Temp. | Humidity | Pressure | Rain* | Wind** | Luminosity | Snow |
|---|---|---|---|---|---|---|---|
| 1777326819 | 24.44° C | 58% | 1016.3 hPa | 0 mm | - | 185 W/m² | - |
| 1777326517 | 24.44° C | 59% | 1016.3 hPa | 0 mm | - | 29 W/m² | - |
| 1777326215 | 24.44° C | 58% | 1016.1 hPa | 0 mm | - | 29 W/m² | - |
| 1777325912 | 24.44° C | 59% | 1016.3 hPa | 0 mm | - | 30 W/m² | - |
| 1777325611 | 24.44° C | 58% | 1016.4 hPa | 0 mm | - | 30 W/m² | - |
| 1777325308 | 24.44° C | 58% | 1016.4 hPa | 0 mm | - | 30 W/m² | - |
| 1777325006 | 24.44° C | 58% | 1016.8 hPa | 0 mm | - | 42 W/m² | - |
| 1777324702 | 24.44° C | 58% | 1016.9 hPa | 0 mm | - | 31 W/m² | - |
| 1777324400 | 24.44° C | 59% | 1016.8 hPa | 0 mm | - | 32 W/m² | - |
| 1777324097 | 24.44° C | 58% | 1016.8 hPa | 0 mm | - | 32 W/m² | - |
| 1777323795 | 24.44° C | 59% | 1016.8 hPa | 0 mm | - | 33 W/m² | - |
| 1777323491 | 24.44° C | 58% | 1017 hPa | 0 mm | - | 32 W/m² | - |
| 1777323189 | 24.44° C | 59% | 1016.7 hPa | 0 mm | - | 49 W/m² | - |
| 1777322886 | 23.89° C | 60% | 1017.1 hPa | 0 mm | - | 34 W/m² | - |
| 1777322585 | 23.89° C | 59% | 1017 hPa | 0 mm | - | 43 W/m² | - |
| 1777322281 | 24.44° C | 59% | 1016.8 hPa | 0 mm | - | 38 W/m² | - |
| 1777321978 | 24.44° C | 60% | 1017 hPa | 0 mm | - | 38 W/m² | - |
| 1777321675 | 24.44° C | 60% | 1016.9 hPa | 0 mm | - | 36 W/m² | - |
| 1777321371 | 24.44° C | 59% | 1017.1 hPa | 0 mm | - | 37 W/m² | - |
| 1777321069 | 24.44° C | 59% | 1017 hPa | 0 mm | - | 38 W/m² | - |
| 1777320767 | 24.44° C | 58% | 1016.9 hPa | 0 mm | - | 40 W/m² | - |
| 1777320463 | 24.44° C | 60% | 1017 hPa | 0 mm | - | 43 W/m² | - |
| 1777320161 | 24.44° C | 59% | 1017.1 hPa | 0 mm | - | 49 W/m² | - |
| 1777319858 | 23.89° C | 60% | 1016.9 hPa | 0 mm | - | 54 W/m² | - |
| 1777319554 | 23.89° C | 59% | 1017.1 hPa | 0 mm | - | 46 W/m² | - |
* Rain latest hour (hover to see other rain measurements)
** Current wind speed in m/s (hover to see current wind gust speed)